Location: Brissac
(47.3500°N, 0.4500°W)
Time: 15:03:24
(UTC+02:00)

ISS - Pass Details

Date: 17 May 2021
Orbit: 419 x 422 km, 51.6° (Epoch: 25 June)

Event Time Altitude Azimuth Distance (km) Brightness Sun altitude
Rises 23:29:24 0° 255° (WSW) 2,365 0.4 -15.2°
Reaches altitude 10° 23:31:31 10° 259° (W) 1,503 -0.6 -15.4°
Maximum altitude 23:34:52 62° 341° (NNW) 480 -3.2 -15.8°
Drops below altitude 10° 23:38:13 10° 63° (ENE) 1,509 -1.0 -16.1°
Enters shadow 23:41:57 -5° 68° (ENE) 3,035 0.5 -16.4°
